W2OBX Weather Reports


time (UTC)temp
C
wind
direction
speed
KPH
gust
KPH
rain 1hr
cm
rain 24hr
cm
rain mn
cm
humidity
%
barometer
mb
20260508220606 20 128 1.6 3.2 0.00 0.00 0.00 49 1013.7
20260508215559 20 112 1.6 3.2 0.00 0.00 0.00 46 1013.5
20260508215056 20 123 0.0 1.6 0.00 0.00 0.00 49 1013.7
20260508214553 20 120 0.0 1.6 0.00 0.00 0.00 50 1013.7
20260508214049 20 131 3.2 4.8 0.00 0.00 0.00 49 1013.7
20260508213547 20 134 3.2 3.2 0.00 0.00 0.00 43 1013.5
20260508213042 20 140 3.2 8.0 0.00 0.00 0.00 46 1013.6
20260508212539 20 167 4.8 8.0 0.00 0.00 0.00 51 1013.5
20260508212036 20 182 6.4 8.0 0.00 0.00 0.00 46 1013.3
20260508211531 21 127 1.6 4.8 0.00 0.00 0.00 43 1013.4
20260508211028 21 113 0.0 0.0 0.00 0.00 0.00 45 1013.5
20260508210524 21 134 3.2 3.2 0.00 0.00 0.00 48 1013.4
20260508210022 21 158 4.8 8.0 0.00 0.00 0.00 43 1013.6
20260508205519 21 128 1.6 3.2 0.00 0.00 0.00 40 1013.8
20260508205015 21 127 0.0 1.6 0.00 0.00 0.00 42 1013.6
20260508204512 21 136 3.2 4.8 0.00 0.00 0.00 48 1013.8
20260508204008 21 125 0.0 3.2 0.00 0.00 0.00 48 1013.6
20260508203504 21 116 0.0 1.6 0.00 0.00 0.00 46 1013.7
20260508203000 21 116 0.0 0.0 0.00 0.00 0.00 43 1013.8
20260508202457 21 116 0.0 1.6 0.00 0.00 0.00 44 1013.8
20260508201954 20 117 0.0 1.6 0.00 0.00 0.00 44 1013.9
20260508201451 20 129 1.6 3.2 0.00 0.00 0.00 41 1014.0
20260508200947 20 176 6.4 8.0 0.00 0.00 0.00 44 1014.3
20260508200445 20 132 3.2 3.2 0.00 0.00 0.00 45 1014.2
20260508195939 20 158 4.8 4.8 0.00 0.00 0.00 44 1014.2
20260508195437 20 144 4.8 8.0 0.00 0.00 0.00 43 1014.3
20260508194933 21 151 4.8 4.8 0.00 0.00 0.00 42 1014.8
20260508194430 21 179 8.0 9.7 0.00 0.00 0.00 40 1015.0
20260508193927 21 174 4.8 8.0 0.00 0.00 0.00 47 1015.0
20260508193424 20 125 1.6 11.3 0.00 0.00 0.00 46 1015.2
20260508192920 20 134 3.2 8.0 0.00 0.00 0.00 42 1015.3
20260508192417 21 122 3.2 4.8 0.00 0.00 0.00 39 1015.3
20260508191914 21 126 1.6 8.0 0.00 0.00 0.00 38 1015.5
20260508191412 21 129 3.2 3.2 0.00 0.00 0.00 37 1015.3
20260508190908 21 109 0.0 1.6 0.00 0.00 0.00 36 1015.5
20260508190405 22 124 0.0 3.2 0.00 0.00 0.00 34 1015.6
20260508185901 21 124 0.0 3.2 0.00 0.00 0.00 35 1015.7
20260508185359 21 133 1.6 3.2 0.00 0.00 0.00 32 1015.7
20260508184856 21 129 0.0 1.6 0.00 0.00 0.00 34 1015.7
20260508184353 20 130 1.6 3.2 0.00 0.00 0.00 29 1015.8
20260508183850 21 165 4.8 8.0 0.00 0.00 0.00 31 1015.6
20260508183346 20 126 3.2 4.8 0.00 0.00 0.00 29 1015.9
20260508182842 20 159 4.8 8.0 0.00 0.00 0.00 33 1015.9
20260508182339 21 138 4.8 4.8 0.00 0.00 0.00 37 1015.9
20260508181834 20 125 0.0 3.2 0.00 0.00 0.00 43 1016.1
20260508181332 20 132 1.6 3.2 0.00 0.00 0.00 39 1016.2
20260508180829 20 127 1.6 3.2 0.00 0.00 0.00 40 1016.1
20260508180325 20 162 4.8 8.0 0.00 0.00 0.00 40 1016.2
20260508175822 20 136 4.8 8.0 0.00 0.00 0.00 39 1016.4
20260508175318 21 108 0.0 1.6 0.00 0.00 0.00 45 1016.4
20260508174817 20 108 0.0 1.6 0.00 0.00 0.00 37 1016.3
20260508174314 20 108 0.0 1.6 0.00 0.00 0.00 41 1016.4
20260508173809 20 114 1.6 1.6 0.00 0.00 0.00 39 1016.6
20260508173307 20 115 1.6 1.6 0.00 0.00 0.00 45 1016.6
20260508172803 19 116 0.0 1.6 0.00 0.00 0.00 43 1016.6
20260508172300 18 104 1.6 1.6 0.00 0.00 0.00 41 1016.8
20260508171756 18 102 1.6 3.2 0.00 0.00 0.00 42 1016.9
20260508171252 18 112 1.6 1.6 0.00 0.00 0.00 47 1016.9
20260508170749 18 119 0.0 1.6 0.00 0.00 0.00 57 1017.0
20260508170247 17 122 0.0 4.8 0.00 0.00 0.00 45 1017.4
20260508165738 17 125 1.6 4.8 0.00 0.00 0.00 46 1017.5
20260508165236 17 150 3.2 4.8 0.00 0.00 0.00 46 1017.6
20260508164732 17 139 3.2 3.2 0.00 0.00 0.00 51 1017.6
20260508164228 17 126 0.0 4.8 0.00 0.00 0.00 47 1017.8
20260508163727 17 125 1.6 3.2 0.00 0.00 0.00 48 1017.9
20260508163224 16 136 3.2 3.2 0.00 0.00 0.00 52 1018.1
20260508162720 16 138 4.8 4.8 0.00 0.00 0.00 50 1017.9
20260508162217 16 129 1.6 1.6 0.00 0.00 0.00 47 1018.0
20260508161714 16 149 4.8 4.8 0.00 0.00 0.00 45 1018.0
20260508161211 16 130 1.6 3.2 0.00 0.00 0.00 51 1018.2
20260508160709 16 127 0.0 0.0 0.00 0.00 0.00 51 1018.2
20260508160207 16 138 3.2 3.2 0.00 0.00 0.00 60 1018.1
20260508155703 16 124 1.6 1.6 0.00 0.00 0.00 54 1018.3
20260508155200 16 124 0.0 1.6 0.00 0.00 0.00 50 1018.4
20260508154657 16 127 1.6 4.8 0.00 0.00 0.00 60 1018.5
20260508154154 15 127 1.6 3.2 0.00 0.00 0.00 65 1018.4
20260508153651 15 118 1.6 1.6 0.00 0.00 0.00 57 1018.6
20260508153148 15 120 0.0 1.6 0.00 0.00 0.00 59 1018.6
20260508152644 15 120 0.0 1.6 0.00 0.00 0.00 73 1018.8
20260508152140 14 119 1.6 1.6 0.00 0.00 0.00 68 1018.7
20260508151637 13 113 0.0 0.0 0.00 0.00 0.00 67 1018.8
20260508151133 13 110 1.6 1.6 0.00 0.00 0.00 63 1018.6
20260508150631 13 129 0.0 1.6 0.00 0.00 0.00 75 1018.7
20260508150127 13 128 1.6 1.6 0.00 0.00 0.00 71 1018.6
20260508145623 13 128 1.6 3.2 0.00 0.00 0.00 71 1018.6
20260508145119 12 127 0.0 0.0 0.00 0.00 0.00 95 1018.7
20260508144617 12 127 0.0 0.0 0.00 0.00 0.00 96 1018.7
20260508144115 12 127 0.0 0.0 0.00 0.00 0.00 97 1019.0
20260508143612 12 127 0.0 0.0 0.00 0.00 0.00 97 1018.9
20260508143109 12 127 1.6 1.6 0.00 0.00 0.00 97 1018.8
20260508142605 12 127 0.0 0.0 0.00 0.00 0.00 98 1018.9
20260508142102 11 127 0.0 0.0 0.00 0.00 0.00 98 1018.9
20260508141559 11 127 0.0 1.6 0.00 0.00 0.00 99 1018.9
20260508141056 11 125 0.0 1.6 0.00 0.00 0.00 99 1019.0
20260508140553 10 126 0.0 0.0 0.00 0.00 0.00 99 1019.0
20260508140050 10 124 0.0 0.0 0.00 0.00 0.00 99 1019.1
20260508135545 10 124 0.0 1.6 0.00 0.00 0.00 99 1019.0
20260508135042 10 124 0.0 0.0 0.00 0.00 0.00 99 1019.0
20260508134538 10 124 0.0 0.0 0.00 0.00 0.00 99 1019.0
20260508134036 10 124 0.0 0.0 0.00 0.00 0.00 99 1018.8
20260508133532 10 124 0.0 0.0 0.00 0.00 0.00 99 1018.9
20260508133030 9 124 0.0 0.0 0.00 0.00 0.00 99 1019.0
20260508132528 9 124 0.0 0.0 0.00 0.00 0.00 99 1019.0
20260508132024 9 124 1.6 1.6 0.00 0.00 0.00 99 1018.9
20260508131519 9 124 0.0 0.0 0.00 0.00 0.00 99 1019.0
20260508131016 8 124 0.0 0.0 0.00 0.00 0.00 99 1018.8
20260508130514 8 124 0.0 0.0 0.00 0.00 0.00 99 1018.8
20260508130009 8 124 0.0 0.0 0.00 0.00 0.00 99 1019.0
20260508125505 8 125 1.6 3.2 0.00 0.00 0.00 99 1019.0
20260508125003 8 123 0.0 0.0 0.00 0.00 0.00 99 1019.0
20260508124501 8 123 0.0 0.0 0.00 0.00 0.00 99 1019.1
20260508123958 8 122 0.0 0.0 0.00 0.00 0.00 99 1018.9
20260508123457 8 122 0.0 0.0 0.00 0.00 0.00 99 1019.0
20260508122952 8 123 0.0 0.0 0.00 0.00 0.00 99 1018.7
20260508122450 8 122 0.0 0.0 0.00 0.00 0.00 99 1018.8
20260508121946 8 122 0.0 0.0 0.00 0.00 0.00 99 1018.7
20260508121445 7 122 0.0 0.0 0.00 0.00 0.00 99 1018.7
20260508120942 7 122 0.0 0.0 0.00 0.00 0.00 99 1018.8
20260508120440 7 121 0.0 0.0 0.00 0.00 0.00 99 1018.6
20260508115938 7 121 0.0 0.0 0.00 0.00 0.00 99 1018.5
20260508115435 6 121 0.0 0.0 0.00 0.00 0.00 99 1018.5
20260508114931 6 121 0.0 0.0 0.00 0.00 0.00 99 1018.6
20260508114429 6 120 0.0 0.0 0.00 0.00 0.00 99 1018.3
20260508113925 6 120 0.0 0.0 0.00 0.00 0.00 99 1018.3
20260508113423 6 118 0.0 0.0 0.00 0.00 0.00 99 1018.3
20260508112920 6 118 0.0 0.0 0.00 0.00 0.00 99 1018.3
20260508112417 6 118 0.0 0.0 0.00 0.00 0.00 99 1018.1
20260508111913 6 118 0.0 0.0 0.00 0.00 0.00 99 1017.9
20260508111410 6 118 0.0 0.0 0.00 0.00 0.00 99 1018.0
20260508110907 6 118 0.0 0.0 0.00 0.00 0.00 99 1017.7
20260508110405 6 118 0.0 0.0 0.00 0.00 0.00 99 1017.8
20260508105905 6 118 0.0 0.0 0.00 0.00 0.00 99 1017.6
20260508105401 6 118 0.0 0.0 0.00 0.00 0.00 99 1017.8
20260508104858 6 118 0.0 0.0 0.00 0.00 0.00 99 1017.6
20260508104356 6 118 0.0 0.0 0.00 0.00 0.00 99 1017.7
20260508103853 6 118 0.0 0.0 0.00 0.00 0.00 99 1017.4
20260508103349 6 118 0.0 0.0 0.00 0.00 0.00 99 1017.4
20260508102847 6 118 0.0 0.0 0.00 0.00 0.00 99 1017.5
20260508102345 6 118 0.0 0.0 0.00 0.00 0.00 99 1017.4
20260508101842 6 118 0.0 0.0 0.00 0.00 0.00 99 1017.3
20260508101339 6 118 0.0 0.0 0.00 0.00 0.00 99 1017.2
20260508100837 6 118 0.0 0.0 0.00 0.00 0.00 99 1017.4
20260508100336 6 118 0.0 0.0 0.00 0.00 0.00 99 1017.2
20260508095830 6 119 0.0 0.0 0.00 0.00 0.00 99 1017.0
20260508095328 6 119 0.0 0.0 0.00 0.00 0.00 99 1017.0
20260508094825 6 119 0.0 0.0 0.00 0.00 0.00 99 1017.1
20260508094322 6 119 0.0 0.0 0.00 0.00 0.00 99 1017.1
20260508093819 6 119 0.0 0.0 0.00 0.00 0.00 99 1016.9
20260508093316 6 119 0.0 0.0 0.00 0.00 0.00 99 1017.0
20260508092814 6 119 0.0 0.0 0.00 0.00 0.00 99 1016.8
20260508092314 6 119 0.0 0.0 0.00 0.00 0.00 99 1017.0
20260508091810 6 119 0.0 0.0 0.00 0.00 0.00 99 1017.0
20260508091306 7 119 0.0 0.0 0.00 0.00 0.00 99 1016.8
20260508090804 7 119 0.0 0.0 0.00 0.00 0.00 99 1016.7
20260508090302 7 119 0.0 0.0 0.00 0.00 0.00 99 1017.2
20260508085757 7 120 0.0 0.0 0.00 0.00 0.00 99 1016.9
20260508085254 7 120 0.0 0.0 0.00 0.00 0.00 99 1017.0
20260508084750 7 120 0.0 0.0 0.00 0.00 0.00 99 1016.8
20260508084248 7 120 0.0 0.0 0.00 0.00 0.00 99 1016.8
20260508083745 7 120 0.0 0.0 0.00 0.00 0.00 99 1016.7
20260508083242 7 120 0.0 0.0 0.00 0.00 0.00 99 1016.8
20260508082737 7 120 0.0 0.0 0.00 0.00 0.00 99 1017.0
20260508082235 7 120 0.0 0.0 0.00 0.00 0.00 99 1016.6
20260508081732 7 120 0.0 0.0 0.00 0.00 0.00 99 1016.6
20260508081229 7 120 0.0 0.0 0.00 0.00 0.00 99 1016.8
20260508080726 8 120 0.0 0.0 0.00 0.00 0.00 99 1016.8
20260508080224 8 120 0.0 0.0 0.00 0.00 0.00 99 1016.7
20260508075720 8 120 0.0 0.0 0.00 0.00 0.00 99 1017.0
20260508075217 8 120 0.0 0.0 0.00 0.00 0.00 99 1017.1
20260508074715 8 120 0.0 0.0 0.00 0.00 0.00 99 1017.0
20260508074212 8 120 0.0 0.0 0.00 0.00 0.00 99 1017.0
20260508073708 8 120 0.0 0.0 0.00 0.00 0.00 99 1017.1
20260508073207 8 120 0.0 0.0 0.00 0.00 0.00 99 1017.1
20260508072702 8 120 0.0 0.0 0.00 0.00 0.00 99 1017.0
20260508072159 8 120 0.0 0.0 0.00 0.00 0.00 99 1016.8
20260508071657 8 120 0.0 0.0 0.00 0.00 0.00 99 1016.8
20260508071155 8 120 0.0 0.0 0.00 0.00 0.00 99 1016.9
20260508070652 8 120 0.0 0.0 0.00 0.00 0.00 99 1016.9
20260508070151 8 121 0.0 0.0 0.00 0.00 0.00 99 1016.9
20260508065647 8 121 0.0 0.0 0.00 0.00 0.00 99 1017.0
20260508065145 8 121 0.0 0.0 0.00 0.00 0.00 99 1016.7
20260508064643 8 121 0.0 0.0 0.00 0.00 0.00 99 1016.9
20260508064141 8 121 0.0 0.0 0.00 0.00 0.00 99 1016.8
20260508063638 8 121 0.0 0.0 0.00 0.00 0.00 99 1016.8
20260508063136 9 121 0.0 0.0 0.00 0.00 0.00 99 1016.8
20260508062633 9 121 0.0 0.0 0.00 0.00 0.00 99 1016.9
20260508062129 9 121 0.0 0.0 0.00 0.00 0.00 99 1016.9
20260508061627 9 121 0.0 0.0 0.00 0.00 0.00 99 1016.8
20260508061125 9 121 0.0 0.0 0.00 0.00 0.00 99 1016.9
20260508060621 9 121 0.0 0.0 0.00 0.00 0.00 99 1017.0
20260508060118 10 121 0.0 0.0 0.00 0.00 0.00 99 1017.1
20260508055614 10 121 0.0 0.0 0.00 0.00 0.00 99 1016.9
20260508055111 10 121 0.0 0.0 0.00 0.00 0.00 99 1016.9
20260508054607 10 121 0.0 0.0 0.00 0.00 0.00 99 1017.0
20260508054105 10 121 0.0 0.0 0.00 0.00 0.00 99 1017.1
20260508053601 10 121 0.0 0.0 0.00 0.00 0.00 99 1017.1
20260508053059 10 121 0.0 0.0 0.00 0.00 0.00 99 1017.1
20260508052557 10 121 0.0 0.0 0.00 0.00 0.00 99 1017.0
20260508052054 10 121 0.0 0.0 0.00 0.00 0.00 99 1017.0
20260508051550 10 121 0.0 0.0 0.00 0.00 0.00 99 1017.1
20260508051045 10 122 0.0 0.0 0.00 0.00 0.00 99 1016.8
20260508050542 10 122 0.0 0.0 0.00 0.00 0.00 99 1016.9
20260508050039 10 122 0.0 0.0 0.00 0.00 0.00 99 1017.0
20260508045535 10 122 0.0 0.0 0.00 0.00 0.00 99 1016.9
20260508045033 10 122 0.0 0.0 0.00 0.00 0.00 99 1016.7
20260508044530 10 122 0.0 0.0 0.00 0.00 0.00 99 1016.7
20260508044026 10 122 0.0 0.0 0.00 0.00 0.00 99 1016.8
20260508043522 10 122 0.0 0.0 0.00 0.00 0.00 99 1016.5
20260508043020 10 122 0.0 0.0 0.00 0.00 0.00 99 1016.5
20260508042517 10 122 0.0 0.0 0.00 0.00 0.00 99 1016.6
20260508042014 10 122 0.0 0.0 0.00 0.00 0.00 99 1016.7
20260508041510 10 122 0.0 0.0 0.00 0.00 0.00 99 1016.6
20260508041007 10 122 0.0 0.0 0.00 0.00 0.00 98 1016.4
20260508040504 10 122 0.0 0.0 0.00 0.00 0.00 98 1016.3
20260508040002 10 122 0.0 0.0 0.00 0.00 0.00 98 1016.3
20260508035458 10 122 0.0 0.0 0.00 0.00 0.00 98 1016.3
20260508034955 10 122 0.0 0.0 0.00 0.00 0.00 98 1016.4
20260508034453 10 122 0.0 0.0 0.00 0.00 0.00 98 1016.2
20260508033949 10 122 0.0 0.0 0.00 0.00 0.00 98 1016.1
20260508033447 10 122 0.0 0.0 0.00 0.00 0.00 98 1016.1
20260508032944 11 122 0.0 0.0 0.00 0.00 0.00 98 1016.3
20260508032436 11 122 0.0 0.0 0.00 0.00 0.00 98 1015.9
20260508031932 11 122 0.0 0.0 0.00 0.00 0.00 98 1015.9
20260508031430 11 122 0.0 0.0 0.00 0.00 0.00 98 1016.2
20260508030925 11 122 0.0 0.0 0.00 0.00 0.00 98 1016.1
20260508030423 11 122 0.0 0.0 0.00 0.00 0.00 98 1016.2
20260508025920 11 122 0.0 0.0 0.00 0.00 0.00 98 1016.2
20260508025416 11 122 0.0 0.0 0.00 0.00 0.00 98 1016.3
20260508024913 11 122 0.0 0.0 0.00 0.00 0.00 98 1016.1
20260508024410 11 122 0.0 0.0 0.00 0.00 0.00 98 1016.1
20260508023907 11 122 0.0 0.0 0.00 0.00 0.00 98 1016.2
20260508023404 11 122 0.0 0.0 0.00 0.00 0.00 98 1015.9
20260508022901 11 122 0.0 0.0 0.00 0.00 0.00 98 1015.9
20260508022356 11 122 0.0 0.0 0.00 0.00 0.00 98 1016.2
20260508021853 11 122 0.0 0.0 0.00 0.00 0.00 98 1015.8
20260508021349 11 122 0.0 0.0 0.00 0.00 0.00 98 1015.6
20260508020845 11 122 0.0 0.0 0.00 0.00 0.00 98 1015.5
20260508020343 11 122 0.0 0.0 0.00 0.00 0.00 98 1015.5
20260508015840 11 122 0.0 0.0 0.00 0.00 0.00 98 1015.5
20260508015338 12 122 0.0 0.0 0.00 0.00 0.00 98 1015.3
20260508014834 12 122 0.0 0.0 0.00 0.00 0.00 97 1015.5
20260508014332 12 122 0.0 0.0 0.00 0.00 0.00 97 1015.4
20260508013832 12 122 0.0 0.0 0.00 0.00 0.00 97 1015.3
20260508013329 12 122 0.0 0.0 0.00 0.00 0.00 97 1015.1
20260508012826 12 122 0.0 0.0 0.00 0.00 0.00 97 1014.8
20260508012323 12 122 0.0 0.0 0.00 0.00 0.00 97 1014.7
20260508011821 12 122 0.0 0.0 0.00 0.00 0.00 97 1014.8
20260508011318 12 122 0.0 0.0 0.00 0.00 0.00 97 1014.7
20260508010815 12 122 0.0 0.0 0.00 0.00 0.00 97 1014.6
20260508010313 12 123 0.0 0.0 0.00 0.00 0.00 96 1014.8
20260508005810 12 122 0.0 0.0 0.00 0.00 0.00 96 1014.6
20260508005307 12 121 0.0 0.0 0.00 0.00 0.00 96 1014.8
20260508004803 12 121 0.0 0.0 0.00 0.00 0.00 96 1014.4
20260508004259 12 121 0.0 0.0 0.00 0.00 0.00 96 1014.4
20260508003755 13 121 0.0 0.0 0.00 0.00 0.00 95 1014.4
20260508003253 13 122 0.0 0.0 0.00 0.00 0.00 95 1014.3
20260508002749 13 122 0.0 0.0 0.00 0.00 0.00 95 1014.2
20260508002247 13 122 0.0 0.0 0.00 0.00 0.00 95 1014.1
20260508001742 13 122 0.0 0.0 0.00 0.00 0.00 95 1014.2
20260508001238 13 122 0.0 0.0 0.00 0.00 0.00 94 1014.0
20260508000735 13 122 0.0 0.0 0.00 0.00 0.00 94 1013.8
20260508000234 13 122 0.0 0.0 0.00 0.00 0.00 94 1014.0
20260507235728 13 122 0.0 0.0 0.00 0.00 0.00 94 1014.1
20260507235226 13 122 0.0 0.0 0.00 0.00 0.00 93 1013.9
20260507234723 13 122 0.0 0.0 0.00 0.00 0.00 93 1014.1
20260507234219 14 122 0.0 0.0 0.00 0.00 0.00 92 1014.3
20260507233715 14 122 0.0 0.0 0.00 0.00 0.00 92 1014.3
20260507233214 14 122 0.0 0.0 0.00 0.00 0.00 91 1014.0
20260507232710 15 122 0.0 0.0 0.00 0.00 0.00 91 1014.1
20260507232208 15 122 0.0 0.0 0.00 0.00 0.00 90 1014.0
20260507231704 15 122 0.0 3.2 0.00 0.00 0.00 90 1014.2
20260507231201 15 137 3.2 4.8 0.00 0.00 0.00 89 1014.3
20260507230657 15 146 3.2 4.8 0.00 0.00 0.00 89 1014.2
20260507230154 15 123 1.6 1.6 0.00 0.00 0.00 91 1014.1
20260507225649 15 122 0.0 1.6 0.00 0.00 0.00 91 1014.3
20260507225146 15 127 1.6 4.8 0.00 0.00 0.00 90 1014.3
20260507224641 15 145 4.8 4.8 0.00 0.00 0.00 89 1014.4
20260507224138 15 133 3.2 3.2 0.00 0.00 0.00 90 1014.4
20260507223634 15 149 4.8 4.8 0.00 0.00 0.00 88 1014.4
20260507223131 15 126 1.6 3.2 0.00 0.00 0.00 87 1014.2
20260507222628 15 149 3.2 8.0 0.00 0.00 0.00 89 1014.3
20260507222125 15 127 1.6 4.8 0.00 0.00 0.00 86 1014.4
20260507221621 15 165 3.2 4.8 0.00 0.00 0.00 87 1014.3
20260507221117 15 146 4.8 4.8 0.00 0.00 0.00 87 1014.2
20260507220615 15 141 3.2 8.0 0.00 0.00 0.00 87 1014.2